This is the latest recevied weather packets stored in our database for station/object KB9GXK. If no packets are shown the sender has not sent any weather packets the latest 1 day(s).
| Time | Temp. | Humidity | Pressure | Rain* | Wind** | Luminosity | Snow |
|---|---|---|---|---|---|---|---|
| 1778025546 | 12.78° C | 38% | 1008.9 hPa | 0 mm | 0 m/s | 34 W/m² | - |
| 1778025244 | 12.78° C | 37% | 1009.1 hPa | 0 mm | 0.45 m/s, 4° | 37 W/m² | - |
| 1778024940 | 12.78° C | 36% | 1008.9 hPa | 0 mm | 1.34 m/s, 288° | 39 W/m² | - |
| 1778024638 | 13.33° C | 37% | 1009 hPa | 0 mm | 0 m/s | 47 W/m² | - |
| 1778024334 | 13.33° C | 36% | 1009 hPa | 0 mm | 0.45 m/s, 302° | 49 W/m² | - |
| 1778024033 | 13.33° C | 35% | 1009.2 hPa | 0 mm | 0.45 m/s, 285° | 49 W/m² | - |
| 1778023730 | 13.33° C | 35% | 1009.1 hPa | 0 mm | 0 m/s | 51 W/m² | - |
| 1778023428 | 13.33° C | 37% | 1008.9 hPa | 0 mm | 0.45 m/s, 208° | 53 W/m² | - |
| 1778023124 | 13.33° C | 35% | 1009 hPa | 0 mm | 1.79 m/s, 274° | 54 W/m² | - |
| 1778022821 | 13.89° C | 35% | 1009 hPa | 0 mm | 0.89 m/s, 276° | 55 W/m² | - |
| 1778022519 | 13.89° C | 36% | 1009.1 hPa | 0 mm | 0.45 m/s, 301° | 61 W/m² | - |
| 1778022216 | 13.89° C | 36% | 1009.1 hPa | 0 mm | 0.89 m/s, 270° | 67 W/m² | - |
| 1778021913 | 13.89° C | 36% | 1009.2 hPa | 0 mm | 0.45 m/s, 269° | 74 W/m² | - |
| 1778021610 | 14.44° C | 36% | 1009.3 hPa | 0 mm | 0 m/s | 90 W/m² | - |
| 1778021305 | 14.44° C | 36% | 1009.2 hPa | 0 mm | 0.45 m/s, 332° | 112 W/m² | - |
| 1778021004 | 14.44° C | 35% | 1009.3 hPa | 0 mm | 0.45 m/s, 277° | 129 W/m² | - |
| 1778020700 | 13.89° C | 37% | 1009.1 hPa | 0 mm | 0 m/s | 122 W/m² | - |
| 1778020398 | 14.44° C | 34% | 1009.2 hPa | 0 mm | 0.45 m/s, 272° | 127 W/m² | - |
| 1778020093 | 14.44° C | 35% | 1009.3 hPa | 0 mm | 2.24 m/s, 320° | 137 W/m² | - |
| 1778019789 | 14.44° C | 35% | 1009.1 hPa | 0 mm | 0 m/s | 146 W/m² | - |
| 1778019487 | 14.44° C | 34% | 1009.2 hPa | 0 mm | 1.34 m/s, 219° | 157 W/m² | - |
| 1778019183 | 14.44° C | 35% | 1009.2 hPa | 0 mm | 0.45 m/s, 33° | 141 W/m² | - |
| 1778018880 | 14.44° C | 34% | 1009.2 hPa | 0 mm | 0.45 m/s, 255° | 146 W/m² | - |
| 1778018577 | 14.44° C | 34% | 1009.3 hPa | 0 mm | 0.45 m/s, 319° | 174 W/m² | - |
| 1778018275 | 14.44° C | 34% | 1009.3 hPa | 0 mm | 1.34 m/s, 285° | 155 W/m² | - |
* Rain latest hour (hover to see other rain measurements)
** Current wind speed in m/s (hover to see current wind gust speed)